Погода в Алтее

Испания     38°36′02″N   0°03′04″E
темп.,
°C
ветер,
м/с
пор.,
м/с
влажн.,
%
обл.,
%
осадки,
мм/ч
давл.,
гПа
погр.,
м
4 марта, чт
чт401:00+13ссв678260 0.1 1026498
04:00+13ссв678236 0.1 1025550
07:00+13ссв678248 0.2 1023518
10:00+13ссв678185 0.1 1023661
13:00+14св787389 0.1 1022605
16:00+14св7772100 0.0 1019423
19:00+14св7874100 0.0 1018477
22:00+13св677914 0.0 1020570
5 марта, пт
пт501:00+13ссв558224 0.0 1019424
04:00+13ссв55820 0.0 1017373
07:00+12ссв55790 0.0 1017338
10:00+13св567618 0.0 1018432
13:00+13всв567844 0.0 1018402
16:00+13всв558283 0.0 1017381
19:00+13всв448191 0.0 1017334
22:00+13св4480100 0.0 1020401
6 марта, сб
сб601:00+13ссв5579100 0.0 1020433
04:00+12ссв5681100 0.0 1020480
07:00+13ссв6775100 0.0 1021415
10:00+13ссв787852 0.0 1022543
13:00+13св777676 0.0 1023635
16:00+14св7777100 0.0 1022547
19:00+13св788084 0.1 1022715
22:00+13св677967 0.0 1023680
7 марта, вс
вс701:00+13ссв787883 0.1 1023533
04:00+13св7887100 0.4 1021550
07:00+13ссв81087100 1.1 1021646
10:00+13ссв7983100 0.1 1022729
13:00+13св6778100 0.2 1022664
16:00+14св787690 0.0 1020443
19:00+13св777993 0.0 1019395
22:00+13св5677100 0.0 1020384
8 марта, пн
пн801:00+13св347550 0.0 1019291
04:00+12ссв22711 0.0 1018185
07:00+13ссз11691 0.0 1018175
10:00+13ю11720 0.0 1019277
13:00+13ююз23760 0.0 1019296
16:00+13юз44776 0.1 1018263
19:00+14юз678122 0.1 1017458
22:00+14зюз68840 0.0 1019494